Bloomington, IN

12:55 PM EDT on April 25, 2018 (GMT -0400)
Monroe County

Weather History for KBMG - January, 2007

Change the Weather History Date:

Monday, January 15, 2007

  Actual Average Record
Temperature  
Mean Temperature 45 °F 29 °F  
Max Temperature 60 °F 38 °F 60 °F (2007)
Min Temperature 30 °F 20 °F -6 °F (2009)
Degree Days  
Heating Degree Days 20 36  
Month to date heating degree days 540  
Since 1 July heating degree days 2613  
Cooling Degree Days 0 0  
Month to date cooling degree days 0  
Year to date cooling degree days 0  
Moisture  
Dew Point 38 °F    
Average Humidity 85    
Maximum Humidity 94    
Minimum Humidity 75    
Precipitation  
Precipitation 0.84 in 0.12 in 0.84 in (2007)
Month to date precipitation 1.88  
Year to date precipitation 1.88  
Sea Level Pressure  
Sea Level Pressure 29.98 in    
Wind  
Wind Speed 11 mph (WSW)    
Max Wind Speed 17 mph    
Max Gust Speed 28 mph    
Visibility 8 miles    
Events Rain    
T = Trace of Precipitation, MM = Missing Value Source: NWS Daily Summary

Daily Weather History Graph

Daily Weather History Graph

Search for Another Location

Airport or City:

Astronomy

Jan. 15, 2007 Rise Set
Actual Time 8:04 AM EST 5:47 PM EST
Civil Twilight 7:35 AM EST 6:17 PM EST
Nautical Twilight 7:02 AM EST 6:49 PM EST
Astronomical Twilight 6:29 AM EST 7:22 PM EST
Moon 5:08 AM EST (1/15) 2:10 PM EST (1/15)
Length of Visible Light 10h 42m
Length of Day
9h 43m
Waning Crescent, 14% of the Moon is Illuminated
Jan 15
Waning Crescent
Jan 18
New
Jan 25
First Quarter
Feb 2
Full
Feb 10
Last Quarter

Hourly Weather History & Observations

Time (EST) Temp. Windchill Dew Point Humidity Pressure Visibility Wind Dir Wind Speed Gust Speed Precip Events Conditions
12:36 AM 48.2 °F - 46.4 °F 93% 29.88 in 6.0 mi ESE 8.1 mph - 0.09 in Rain Light Rain
12:53 AM 50.0 °F - 48.0 °F 93% 29.87 in 6.0 mi SE 9.2 mph - 0.09 in Rain Light Rain
1:05 AM 50.0 °F - 48.2 °F 94% 29.85 in 2.0 mi SE 8.1 mph - 0.02 in Rain Light Rain
1:07 AM 50.0 °F - 48.2 °F 94% 29.85 in 1.8 mi SE 9.2 mph - 0.02 in Rain Light Rain
1:15 AM 51.8 °F - 48.2 °F 88% 29.85 in 2.5 mi SE 9.2 mph - 0.02 in Rain Light Rain
1:24 AM 51.8 °F - 50.0 °F 94% 29.84 in 4.0 mi SE 9.2 mph - 0.03 in Rain Light Rain
1:53 AM 55.0 °F - 53.1 °F 93% 29.82 in 8.0 mi South 9.2 mph - 0.06 in Rain Light Rain
2:53 AM 60.1 °F - 57.0 °F 90% 29.79 in 4.0 mi SSW 13.8 mph 24.2 mph 0.06 in Rain Light Rain
3:44 AM 53.6 °F - 50.0 °F 88% 29.84 in 4.0 mi West 15.0 mph 27.6 mph 0.07 in Rain Light Rain
3:53 AM 52.0 °F - 48.9 °F 89% 29.85 in 4.0 mi West 10.4 mph 20.7 mph 0.08 in Rain Rain
4:11 AM 51.8 °F - 48.2 °F 88% 29.85 in 6.0 mi West 11.5 mph - 0.03 in Rain Light Rain
4:53 AM 51.1 °F - 48.0 °F 89% 29.86 in 6.0 mi WSW 11.5 mph - 0.13 in Rain Rain
5:53 AM 50.0 °F - 46.0 °F 86% 29.89 in 6.0 mi WSW 13.8 mph 19.6 mph 0.14 in Rain Rain
6:53 AM 48.0 °F - 44.1 °F 86% 29.90 in 9.0 mi WSW 8.1 mph - 0.11 in Rain Light Rain
7:53 AM 46.0 °F 40.2 °F 42.1 °F 86% 29.91 in 10.0 mi WSW 12.7 mph - 0.06 in Rain Light Rain
8:53 AM 45.0 °F 39.7 °F 41.0 °F 86% 29.95 in 10.0 mi WSW 10.4 mph - 0.06 in Rain Light Rain
9:53 AM 43.0 °F 36.4 °F 39.9 °F 89% 29.98 in 10.0 mi West 12.7 mph - 0.03 in Rain Light Rain
10:53 AM 41.0 °F 34.3 °F 37.0 °F 86% 29.99 in 10.0 mi West 11.5 mph - 0.02 in   Overcast
11:53 AM 41.0 °F 34.7 °F 36.0 °F 82% 30.02 in 10.0 mi West 10.4 mph - N/A   Overcast
12:03 PM 39.2 °F 33.0 °F 35.6 °F 87% 30.00 in 10.0 mi West 9.2 mph 19.6 mph N/A   Overcast
12:53 PM 39.0 °F 31.4 °F 35.1 °F 86% 29.99 in 10.0 mi West 12.7 mph - N/A   Overcast
1:53 PM 37.9 °F 30.9 °F 34.0 °F 86% 29.97 in 5.0 mi WSW 10.4 mph - N/A   Overcast
2:53 PM 37.0 °F 27.7 °F 33.1 °F 86% 30.00 in 10.0 mi West 16.1 mph 21.9 mph N/A   Overcast
3:53 PM 37.0 °F 28.5 °F 32.0 °F 82% 30.01 in 10.0 mi West 13.8 mph 19.6 mph 0.00 in   Overcast
3:59 PM 37.4 °F 28.9 °F 30.2 °F 75% 30.01 in 10.0 mi West 13.8 mph 21.9 mph N/A   Overcast
4:21 PM 37.4 °F 30.3 °F 30.2 °F 75% 30.03 in 10.0 mi West 10.4 mph - N/A   Overcast
4:51 PM 37.4 °F 28.9 °F 30.2 °F 75% 30.03 in 10.0 mi WNW 13.8 mph - N/A   Overcast
4:53 PM 37.0 °F 28.1 °F 30.0 °F 76% 30.04 in 10.0 mi West 15.0 mph - N/A   Overcast
5:21 PM 35.6 °F 28.0 °F 30.2 °F 81% 30.03 in 10.0 mi West 10.4 mph - N/A   Overcast
5:53 PM 36.0 °F 28.5 °F 30.0 °F 79% 30.07 in 10.0 mi WNW 10.4 mph 16.1 mph N/A   Overcast
6:53 PM 35.1 °F 26.9 °F 28.9 °F 78% 30.10 in 10.0 mi West 11.5 mph - N/A   Overcast
7:45 PM 33.8 °F 27.0 °F 28.4 °F 81% 30.11 in 10.0 mi WNW 8.1 mph - N/A   Overcast
7:53 PM 33.1 °F 23.4 °F 28.0 °F 82% 30.13 in 10.0 mi West 13.8 mph 20.7 mph N/A   Overcast
8:18 PM 33.8 °F 24.3 °F 28.4 °F 81% 30.12 in 10.0 mi WNW 13.8 mph 18.4 mph N/A   Overcast
8:53 PM 33.1 °F 25.5 °F 27.0 °F 78% 30.14 in 10.0 mi WNW 9.2 mph - N/A   Overcast
9:53 PM 32.0 °F 20.8 °F 26.1 °F 79% 30.17 in 10.0 mi West 17.3 mph 21.9 mph N/A   Overcast
10:53 PM 30.9 °F 20.2 °F 24.1 °F 76% 30.19 in 10.0 mi West 15.0 mph 20.7 mph N/A   Overcast
11:53 PM 30.0 °F 20.5 °F 24.1 °F 79% 30.21 in 10.0 mi West 11.5 mph - N/A   Overcast